This demonstration page uses our WeatherBlox Daily Observations layout. Learn more.

Left ArrowRight Arrow

Hourly Observations for January 14, 2016

Temp ( °F °C ) Dew Point ( °F °C ) Humidity (%) Winds ( mph kmh ) Pressure ( in mb ) Visibility ( mi km ) Precip ( " mm )
12:59 am 00:59 Clear 29 -1.7 16 -8.9 58 58 S 3 6 30.09 1019 10 16 0.00 0.00
1:59 am 01:59 Mostly Cloudy 32 0 15 -9.4 50 50 SSW 6 9 30.07 1018 10 16 0.00 0.00
2:59 am 02:59 Mostly Cloudy 33 0.6 14 -10 45 45 SSW 8 13 30.05 1018 10 16 0.00 0.00
3:59 am 03:59 Mostly Cloudy 34 1.1 14 -10 44 44 S 10 17 30.04 1017 10 16 0.00 0.00
4:59 am 04:59 Partly Cloudy 34 1.1 15 -9.4 46 46 SSW 9 15 30.04 1017 10 16 0.00 0.00
5:59 am 05:59 Mostly Clear 34 1.1 17 -8.3 50 50 SW 10 17 30.06 1018 10 16 0.00 0.00
6:59 am 06:59 Mostly Clear 34 1.1 17 -8.3 50 50 SW 12 19 30.07 1018 10 16 0.00 0.00
7:59 am 07:59 Mostly Sunny 36 2.2 17 -8.3 46 46 WSW 7 11 30.08 1019 10 16 0.00 0.00
8:59 am 08:59 Mostly Sunny 38 3.3 18 -7.8 44 44 W 10 17 30.11 1020 10 16 0.00 0.00
9:59 am 09:59 Mostly Sunny 42 5.6 19 -7.2 40 40 W 8 13 30.10 1019 10 16 0.00 0.00
10:59 am 10:59 Mostly Sunny 48 8.9 23 -5 37 37 WSW 9 15 30.09 1019 10 16 0.00 0.00
11:59 am 11:59 Mostly Sunny 51 10.6 24 -4.4 35 35 W 16 26 30.05 1018 10 16 0.00 0.00
12:59 pm 12:59 Mostly Sunny 55 12.8 27 -2.8 34 34 WSW 10 17 30.02 1017 10 16 0.00 0.00
1:59 pm 13:59 Mostly Sunny 56 13.3 27 -2.8 33 33 WSW 15 24 30.00 1016 10 16 0.00 0.00
2:59 pm 14:59 Mostly Sunny 57 13.9 28 -2.2 33 33 WSW 13 20 29.99 1016 10 16 0.00 0.00
3:59 pm 15:59 Mostly Sunny 57 13.9 28 -2.2 33 33 WSW 13 20 30.01 1016 10 16 0.00 0.00
4:59 pm 16:59 Mostly Sunny 55 12.8 29 -1.7 37 37 WSW 8 13 30.02 1017 10 16 0.00 0.00
5:59 pm 17:59 Mostly Clear 53 11.7 29 -1.7 40 40 SW 6 9 30.04 1017 10 16 0.00 0.00
6:59 pm 18:59 Clear 50 10 30 -1.1 46 46 SW 6 9 30.05 1018 10 16 0.00 0.00
7:59 pm 19:59 Clear 49 9.4 29 -1.7 46 46 SSW 6 9 30.05 1018 10 16 0.00 0.00
8:59 pm 20:59 Clear 49 9.4 29 -1.7 46 46 SSW 8 13 30.07 1018 10 16 0.00 0.00
9:59 pm 21:59 Clear 48 8.9 29 -1.7 48 48 SSW 8 13 30.06 1018 10 16 0.00 0.00
10:59 pm 22:59 Clear 47 8.3 29 -1.7 50 50 S 6 9 30.05 1018 10 16 0.00 0.00
11:59 pm 23:59 Clear 47 8.3 28 -2.2 48 48 SSW 6 9 30.04 1017 10 16 0.00 0.00

Powered by AerisWeather